STARLINK-4003 (52701 NORAD) Tracking and Keplerian Element Data
This shows tracking and keplerian element data for the satellite.
Feedback or suggestion? Click here.
Element | Value |
Catalog | 52701 |
Name | STARLINK-4003 |
Epoch Orbit | 130 |
Epoch Day | 192.91667824 |
Epoch Year | 2022 |
RAAN | 28.1759 |
Inclination | 53.2163 |
Eccentricity | 0.0002315 |
Argument of Perigee | 22.069 |
Mean Anonmoly | 51.1175 |
Mean Motion | 15.73224853 |
Decay Rate | -0.00027788 |
L1 | 1 52701U 22053AX 22192.91667824 -.00027788 00000+0 -19398-3 0 9992 |
L2 | 2 52701 53.2163 28.1759 0002315 22.0690 51.1175 15.73224853 1303 |
Live tracking and technical data element details for STARLINK-4003 (NORAD 52701). STARLINK-4003 can be tracked NOW for your location showing map with azimuth and elevation plus other details from your city location.
Track the satellite on the map from your city or location and see movement details for azimuth, elevation, latitude, longitude, range, height, and movement on the map or in text.
IsCatalogInMostPopularTable: catalog: 52701, numindb: 8
Update: records affected: 1
GetName: 52701 STARLINK-4003
Hit Count: updated at: Sat, 13 Aug 2022 23:36:45 GMT